This is the latest recevied weather packets stored in our database for station/object N9XRG. If no packets are shown the sender has not sent any weather packets the latest 10 day(s).
| Time | Temp. | Humidity | Pressure | Rain* | Wind** | Luminosity | Snow |
|---|---|---|---|---|---|---|---|
| 1777930678 | 25° C | 43% | 1002.2 hPa | 0 mm | - | 89 W/m² | - |
| 1777930375 | 25° C | 43% | 1002.1 hPa | 0 mm | - | 93 W/m² | - |
| 1777930072 | 24.44° C | 43% | 1002.2 hPa | 0 mm | - | 97 W/m² | - |
| 1777929768 | 25° C | 42% | 1002.1 hPa | 0 mm | - | 100 W/m² | - |
| 1777929466 | 25° C | 42% | 1002.1 hPa | 0 mm | - | 101 W/m² | - |
| 1777929162 | 25° C | 40% | 1001.9 hPa | 0 mm | - | 91 W/m² | - |
| 1777928859 | 25° C | 42% | 1002.1 hPa | 0 mm | - | 501 W/m² | - |
| 1777928557 | 25.56° C | 40% | 1002 hPa | 0 mm | - | 566 W/m² | - |
| 1777928253 | 26.11° C | 40% | 1002.1 hPa | 0 mm | - | 595 W/m² | - |
| 1777927951 | 26.11° C | 42% | 1002 hPa | 0 mm | - | 620 W/m² | - |
| 1777927649 | 26.11° C | 42% | 1002.4 hPa | 0 mm | - | 645 W/m² | - |
| 1777927347 | 25.56° C | 45% | 1002.1 hPa | 0 mm | - | 677 W/m² | - |
| 1777927047 | 25.56° C | 44% | 1002.1 hPa | 0 mm | - | 662 W/m² | - |
| 1777926743 | 25.56° C | 42% | 1002 hPa | 0 mm | - | 674 W/m² | - |
| 1777926443 | 25.56° C | 43% | 1001.9 hPa | 0 mm | - | 711 W/m² | - |
| 1777926141 | 25.56° C | 42% | 1002 hPa | 0 mm | - | 706 W/m² | - |
| 1777925838 | 25.56° C | 43% | 1002.1 hPa | 0 mm | - | 725 W/m² | - |
| 1777925535 | 25.56° C | 43% | 1002.1 hPa | 0 mm | - | 743 W/m² | - |
| 1777925233 | 25.56° C | 43% | 1002.2 hPa | 0 mm | - | 785 W/m² | - |
| 1777924928 | 25.56° C | 43% | 1002.2 hPa | 0 mm | - | 250 W/m² | - |
| 1777924625 | 25.56° C | 42% | 1002.3 hPa | 0 mm | - | 544 W/m² | - |
| 1777924321 | 26.11° C | 43% | 1002.4 hPa | 0 mm | - | 833 W/m² | - |
| 1777924018 | 25.56° C | 43% | 1002.5 hPa | 0 mm | - | 857 W/m² | - |
| 1777923714 | 25° C | 45% | 1002.5 hPa | 0 mm | - | 228 W/m² | - |
| 1777923410 | 25.56° C | 44% | 1002.8 hPa | 0 mm | - | 222 W/m² | - |
* Rain latest hour (hover to see other rain measurements)
** Current wind speed in m/s (hover to see current wind gust speed)